User: anonymous   Login
Location: 81360 Arifat, France
(43.7204°N, 2.3408°E)
Time: 22:23:35
(UTC+02:00)
Language:

N. Korean satellite - Orbit

View from above orbital plane
View from above orbital plane
View from above satellite
View from above satellite

Ground track
Ground track

The orbit data is extracted from the following two-line orbital elements,

1 39026U 12072A   21294.53100358  .00004646  00000-0  15462-3 0  9996
2 39026  97.2540 284.4547 0032887 296.1969  63.5892 15.31119851492310
Epoch (UTC): 21 October 2021 12:44:38
Eccentricity: 0.0032887
inclination: 97.2540°
perigee height: 450 km
apogee height: 495 km
right ascension of ascending node: 284.4547°
argument of perigee: 296.1969°
revolutions per day: 15.31119851
mean anomaly at epoch: 63.5892°
orbit number at epoch: 49231

The dashed part of the orbit path shows where the satellite is in the earth's shadow,  

DLR